Location: Unspecified
(50.0830°N, 0.0000°E)
Time: 20:47:08
(UTC+00:00)

Envisat - Pass Details

Date: 24 November 2019
Orbit: 764 x 766 km, 98.1° (Epoch: 14 December)

Event Time Altitude Azimuth Distance (km) Brightness Sun altitude
Rises 19:11:28 0° 208° (SSW) 3,222 6.6 -29.1°
Reaches altitude 10° 19:14:25 10° 226° (SW) 2,301 6.0 -29.6°
Maximum altitude 19:17:59 19° 271° (W) 1,765 5.6 -30.2°
Drops below altitude 10° 19:21:34 10° 316° (NW) 2,313 6.0 -30.8°
Sets 19:24:34 0° 334° (NNW) 3,245 6.6 -31.2°
